Tracking 19827 objects as of 22-Aug-2019
HD Live streaming from Space Station
objects crossing your sky now

COSMOS 2251 DEB

Track COSMOS 2251 DEB now!
10-day predictions


NORAD ID: 34327
Int'l Code: 1993-036NZ
Perigee: 664.5 km
Apogee: 741.3 km
Inclination: 74.0 °
Period: 98.7 minutes
Semi major axis: 7073 km
RCS: 0.0428 m2 (small)
Launch date: June 16, 1993
Source: Commonwealth of Independent States (former USSR) (CIS)
Launch site: PLESETSK MISSILE AND SPACE COMPLEX (PKMTR)

Note: This is SATELLITE DEBRIS
aabbcc
Your satellite tracking list
Your tracking list is empty




NASA's NSSDC Master Catalog

Two Line Element Set (TLE):
1 34327U 93036NZ  19233.60038012  .00000205  00000-0  49152-4 0  9990
2 34327  74.0087 304.3486 0054306 328.8034 149.3662 14.59194369557820
Source of the keplerian elements: AFSPC